Location: ???????
(55.4362°N, 38.1183°E)
Time: 18:00:27
(UTC+00:00)

Cosmos 1867 - Pass Details

Date: 17 June 2021
Orbit: 773 x 803 km, 65.0° (Epoch: 29 July)

Event Time Altitude Azimuth Distance (km) Brightness Sun altitude
Rises 19:26:44 0° 312° (NW) 3,322 8.4 -7.0°
Reaches altitude 10° 19:29:11 10° 312° (NW) 2,390 7.4 -7.2°
Maximum altitude 19:34:42 82° 225° (SW) 817 3.6 -7.5°
Drops below altitude 10° 19:40:11 10° 139° (SE) 2,376 5.4 -7.8°
Enters shadow 19:40:30 - 139° (SE) 2,495 5.5 -7.9°
